Wind_Speed
11 11 11 11 10 10 9 9 8 9 9 9 9 10 11 11 11 11 11 11 10 10 10 9 10 10 11 11 11 11 12 12 12 13 14 15 15 15 16 16 16 16 16 15 14 14 12 9 7 7 7 6 5 5 5 5 6 7 7 8 9 10 11 11 12 13 13 13 13 13 14 15 14 15 17 19 20 20 21 21 21 21 20 19 18 17 17 15
12 12 11 11 11 11 11 10 10 10 10 10 10 10 11 11 11 11 11 11 10 10 9 9 9 9 10 10 10 10 10 10 10 10 12 12 13 13 15 15 16 15 15 15 15 15 14 12 11 10 9 8 7 6 6 6 6 7 8 9 10 11 12 13 13 14 15 14 14 14 15 16 16 16 18 20 20 22 23 21 22 22 21 19 18 17 17 16
13 13 12 12 12 12 12 12 12 11 11 11 11 11 11 11 11 11 11 11 10 10 10 9 9 9 10 10 10 10 10 10 9 9 10 10 11 12 12 13 13 13 14 14 13 13 13 12 12 11 10 10 8 8 7 7 7 7 9 10 11 12 12 13 14 14 14 14 15 15 15 16 17 19 21 21 22 23 22 20 22 22 20 20 19 18 17 16
14 13 13 13 12 13 13 13 13 13 13 12 12 11 11 11 11 11 11 11 10 10 10 10 9 9 9 10 11 10 11 11 8 8 10 9 10 11 11 11 12 12 12 12 12 12 11 11 11 11 10 10 9 9 8 7 8 9 9 11 11 11 12 13 13 13 14 14 16 16 17 18 19 21 22 23 25 23 19 19 21 21 19 20 19 18 18 18
14 14 13 13 13 13 13 13 14 14 14 14 12 12 11 11 10 11 11 10 11 11 10 10 10 10 10 10 11 11 11 10 8 10 11 10 11 11 11 11 11 11 11 11 11 11 11 11 11 11 11 10 9 10 9 9 9 10 10 11 11 11 11 12 12 13 14 15 16 18 19 19 20 23 23 25 25 21 18 18 20 20 19 20 19 19 19 19
14 14 14 13 13 13 13 13 13 13 14 14 13 12 11 11 10 11 11 11 10 10 11 11 11 11 10 10 10 11 11 11 11 11 11 12 12 12 12 12 12 12 12 12 12 11 11 11 11 12 11 11 10 10 10 10 11 12 11 11 11 11 12 12 13 14 14 15 16 18 19 19 21 23 24 24 20 19 20 19 19 19 19 19 19 19 19 20
15 15 14 14 14 14 14 14 13 14 13 14 14 13 12 11 11 11 12 11 11 11 11 11 11 11 11 10 10 10 11 11 11 11 11 12 13 13 13 13 13 13 13 14 13 13 13 12 12 12 12 12 11 11 11 11 12 13 12 11 12 12 12 12 13 14 15 16 16 18 19 19 20 22 22 18 14 17 20 18 18 19 19 20 20 20 21 22
16 16 15 15 15 15 15 14 14 14 14 14 14 13 12 12 12 12 12 12 11 11 11 11 11 11 11 10 10 10 10 10 10 10 11 12 13 14 15 15 15 15 15 15 15 15 14 14 13 13 13 13 12 13 12 12 13 13 13 13 13 14 14 14 14 15 17 17 17 18 18 19 20 21 18 12 11 15 18 18 19 20 21 22 22 22 23 24
17 17 16 16 16 16 15 15 15 14 14 14 14 14 13 13 13 13 13 12 12 12 11 11 11 11 11 11 10 10 10 10 10 10 11 12 13 14 15 15 15 15 16 16 17 17 16 16 15 15 15 14 13 13 14 14 14 13 14 14 15 16 16 16 16 17 18 18 19 20 19 20 21 21 15 10 13 18 18 20 20 21 22 23 24 24 24 25
19 18 17 17 16 16 16 16 16 15 15 14 14 14 14 14 14 14 14 13 12 12 12 11 11 11 11 11 10 10 10 10 10 11 13 13 14 14 14 14 14 15 17 18 19 19 19 18 17 16 16 15 14 14 15 16 15 14 15 16 17 18 18 19 18 19 19 19 21 22 22 22 23 23 15 12 18 20 20 21 21 22 23 23 24 24 25 26
19 19 18 18 17 17 17 17 17 16 16 15 15 15 15 14 14 15 15 14 14 13 13 12 12 11 11 11 10 10 11 10 11 12 14 14 14 14 14 14 15 17 19 20 21 21 21 20 18 18 17 16 16 16 16 15 16 16 17 18 19 19 19 19 19 20 20 20 21 23 26 25 25 23 16 15 21 21 21 22 22 23 24 25 26 26 26 25
20 20 19 19 18 18 18 17 17 17 17 17 16 16 17 16 15 16 15 15 15 15 14 13 13 12 11 11 10 11 11 11 12 13 14 14 13 14 14 16 18 20 21 21 22 22 22 22 21 19 18 18 18 17 16 16 18 19 19 20 20 20 20 19 20 21 20 20 22 24 29 31 26 22 18 19 22 22 24 23 23 24 24 27 28 28 28 27
21 20 20 20 19 19 19 18 18 18 18 18 18 18 18 18 16 16 17 16 16 16 15 15 14 14 13 12 12 13 12 12 13 13 13 13 13 14 16 19 20 21 22 22 23 24 24 24 23 21 20 19 19 18 18 19 20 20 21 22 22 23 21 19 18 19 20 21 24 23 31 36 28 22 21 22 23 24 26 25 25 25 25 26 28 29 29 28
21 21 21 20 20 20 20 20 19 19 19 20 20 20 20 20 19 18 18 17 17 17 16 16 16 15 15 14 13 14 14 13 13 13 12 12 14 16 17 19 21 22 24 24 25 25 26 25 24 24 22 21 20 20 20 20 20 21 22 22 22 23 22 20 18 20 22 23 25 23 31 39 32 24 23 22 24 27 28 27 27 27 27 28 28 29 29 29
22 22 21 21 21 21 21 21 21 20 20 21 21 21 22 22 22 20 20 19 18 18 17 17 17 17 17 16 16 16 15 14 14 13 12 14 16 17 18 20 21 23 24 26 27 27 27 26 26 25 24 23 22 22 21 21 21 21 21 21 22 23 24 24 23 24 24 24 26 25 31 40 34 27 27 26 27 29 30 29 29 29 29 29 29 29 29 29
24 23 23 22 22 22 22 22 22 22 22 22 22 23 24 24 24 23 23 21 20 19 19 19 18 18 19 18 17 17 16 16 15 13 14 16 16 18 19 20 21 23 25 27 27 28 28 27 26 26 25 24 23 23 22 23 23 21 20 21 23 25 27 28 27 27 26 26 29 28 33 41 36 30 30 30 30 30 31 31 30 31 31 30 29 28 29 28
25 24 24 23 23 22 23 23 22 23 24 24 24 24 25 26 26 26 25 24 23 22 21 21 20 20 20 20 19 19 18 17 15 15 16 17 18 20 20 21 23 25 26 28 28 29 29 27 27 27 26 25 25 25 23 24 23 21 21 22 24 27 29 30 30 29 28 28 31 33 36 42 40 34 32 33 32 31 31 31 31 32 32 30 28 28 29 27
27 26 26 25 24 23 24 23 23 23 24 25 25 25 26 27 27 28 28 27 26 25 25 24 23 23 22 20 19 18 17 16 16 18 19 19 21 22 21 23 25 26 27 28 29 29 28 27 27 27 27 26 26 25 24 25 25 24 23 24 27 29 30 31 32 31 30 31 34 36 40 43 42 37 34 32 33 34 33 31 32 32 29 27 27 28 28 27
29 28 28 27 26 25 26 25 24 24 25 25 26 26 27 28 28 29 29 29 29 28 27 26 25 24 23 20 18 17 18 19 20 20 21 22 23 22 23 25 26 26 27 29 30 29 28 27 27 29 26 24 24 24 26 27 27 27 26 27 30 32 33 32 32 32 33 35 37 38 41 42 42 41 36 33 35 35 33 32 32 27 25 25 26 26 27 26
32 31 30 29 28 27 27 27 26 26 26 26 26 26 27 28 29 30 30 30 30 30 29 28 28 27 27 25 23 22 22 22 22 23 24 24 23 25 26 26 26 27 28 29 30 29 27 26 27 28 22 20 22 24 27 29 29 29 28 29 31 34 36 33 32 34 35 38 40 39 41 43 44 44 40 36 35 35 35 33 27 22 23 25 24 25 26 24
33 32 32 31 30 29 29 29 28 27 27 28 27 27 28 29 29 30 31 31 31 31 32 31 32 32 30 29 27 26 25 26 26 26 26 25 25 27 27 26 28 29 29 29 29 28 27 26 25 23 20 20 23 25 28 29 30 31 30 31 33 36 37 34 32 35 35 37 42 42 43 48 47 45 43 41 39 35 32 27 22 23 24 23 23 23 24 24
34 33 32 32 31 30 31 31 29 29 29 29 29 29 29 29 30 31 33 34 33 32 33 33 34 34 32 31 31 30 30 30 30 29 28 28 28 29 30 30 31 31 29 28 27 27 27 25 22 20 21 22 23 25 28 30 32 31 30 32 35 36 36 35 33 34 35 37 43 44 47 53 51 48 47 42 36 25 17 21 26 26 23 22 24 23 23 22
34 33 33 32 31 31 32 31 31 30 29 29 30 30 31 31 32 32 34 38 37 34 33 34 35 35 34 34 34 34 35 35 34 33 32 32 32 33 33 32 31 29 27 25 25 26 25 23 22 23 25 24 24 26 27 29 32 32 32 34 37 36 33 34 34 35 36 37 43 44 49 59 53 46 41 32 25 13 12 26 27 20 20 22 25 22 20 19
36 34 34 32 31 32 33 32 31 30 29 30 30 30 32 32 33 34 35 40 42 39 35 34 34 35 35 35 36 36 38 38 38 36 35 35 34 34 33 31 29 26 24 23 24 26 25 24 26 28 29 28 28 28 28 32 34 34 35 35 38 35 30 33 35 35 36 37 39 39 47 56 39 21 18 19 24 22 23 28 18 13 19 22 22 19 16 18
37 37 36 35 33 34 35 34 33 32 31 31 31 31 32 33 34 35 36 41 45 43 39 37 36 35 35 36 37 38 39 40 39 38 36 35 34 34 32 28 27 25 22 23 26 28 26 25 29 30 30 30 30 30 30 33 37 37 36 35 35 32 30 33 33 33 34 29 28 27 29 34 17 1 10 25 36 36 30 23 14 13 19 19 19 17 17 21
37 37 37 36 35 35 36 36 34 33 33 32 32 32 32 34 34 34 37 40 44 44 39 36 35 33 33 34 33 35 38 39 37 36 34 33 32 32 30 27 25 25 23 25 27 28 27 26 29 30 29 29 30 31 30 32 37 37 36 35 32 32 32 33 32 32 28 22 24 23 18 26 26 21 31 42 41 34 27 23 18 15 17 16 17 19 20 20
36 36 36 36 35 35 36 36 34 33 33 33 33 33 33 34 34 34 33 29 30 33 29 28 30 30 30 29 28 29 31 31 30 29 28 27 29 29 28 26 25 25 26 27 26 26 28 28 29 30 30 31 31 32 31 31 34 35 36 34 31 34 33 33 34 30 31 32 29 28 25 30 39 39 41 43 35 30 29 23 19 20 18 15 17 20 19 16
36 36 36 35 34 34 36 36 35 34 33 33 33 33 33 33 33 33 26 13 11 14 13 15 19 21 22 22 22 23 25 25 25 24 23 23 25 26 27 27 27 28 29 30 31 30 31 32 32 32 32 32 33 33 32 30 32 34 36 34 32 34 33 34 34 30 36 34 23 29 30 22 33 40 35 35 32 31 30 21 21 25 19 15 17 19 17 16
38 37 37 36 34 34 34 35 36 35 34 34 33 32 32 31 31 29 19 9 8 12 14 15 18 20 22 24 24 24 24 25 25 25 24 24 26 28 29 28 28 31 32 34 36 34 34 35 34 34 35 35 34 33 32 31 32 34 36 35 33 33 33 32 32 32 34 25 19 35 33 17 25 37 32 34 35 30 25 23 27 25 16 15 19 19 17 19
41 40 39 39 38 35 34 34 34 34 35 35 34 34 32 31 29 21 13 12 11 13 17 18 20 24 26 28 28 27 26 26 26 27 26 28 30 31 32 31 31 33 34 35 37 36 37 38 37 37 37 37 36 35 35 34 35 37 36 35 34 32 31 29 29 28 22 15 22 37 36 23 18 23 28 33 31 27 28 29 28 19 15 18 20 20 20 22
43 42 41 41 40 38 37 35 34 33 34 34 34 34 32 31 27 16 11 17 19 19 22 21 23 26 26 28 30 29 29 29 28 29 30 31 32 34 34 32 32 33 35 38 38 38 39 39 40 40 39 38 38 38 37 37 38 38 36 34 30 22 19 18 17 14 6 9 22 29 25 23 20 23 33 34 31 34 34 28 18 15 17 22 21 20 22 25
42 43 43 42 40 39 38 37 36 34 33 33 31 33 31 26 26 27 22 18 13 12 17 21 25 27 25 27 29 29 30 31 30 30 32 34 36 38 37 34 33 30 30 35 36 37 40 42 40 39 39 39 39 39 39 40 40 40 37 31 19 8 7 7 3 3 6 12 25 26 17 18 34 47 47 39 36 32 25 19 16 20 24 23 20 21 24 26
40 41 41 41 41 39 37 36 35 35 35 33 31 33 30 19 23 34 32 24 15 11 13 14 17 20 21 26 28 27 28 31 30 30 32 36 39 40 38 37 37 32 31 34 32 29 32 38 38 37 37 37 37 37 37 39 37 36 34 26 14 3 2 4 4 3 8 16 26 24 15 17 35 47 41 31 25 15 18 27 27 28 26 21 21 22 26 29
41 41 39 39 39 38 37 34 34 35 34 34 34 32 29 26 26 27 29 32 30 27 27 22 19 21 24 28 29 28 29 30 30 31 34 37 40 41 41 40 39 38 38 37 33 27 23 30 34 33 32 32 33 32 30 31 32 32 29 22 19 15 9 7 5 3 7 18 23 14 9 14 24 32 30 24 19 17 27 37 30 27 24 21 24 25 28 31
41 42 41 40 38 37 36 33 33 34 33 34 35 33 37 41 37 33 35 39 36 36 38 36 33 32 32 33 32 31 31 31 33 34 35 39 41 42 43 41 38 38 39 35 32 30 28 35 41 35 33 35 33 31 30 28 28 29 27 24 26 28 25 16 13 16 11 14 19 14 17 33 42 47 47 39 35 31 28 30 25 23 25 24 25 26 29 32
41 42 41 41 39 35 34 33 32 33 34 34 34 41 52 54 47 44 45 41 37 38 37 37 38 36 36 39 39 37 35 35 36 35 36 40 43 46 47 43 40 39 40 37 34 30 26 34 40 33 30 31 28 29 32 30 27 26 28 31 32 30 27 20 16 21 12 7 18 19 25 48 55 51 46 37 33 28 23 28 27 23 25 26 26 29 33 33
45 45 45 45 41 35 34 34 33 32 34 34 37 49 60 60 55 54 51 46 43 39 33 34 37 36 36 37 39 40 36 36 39 38 39 40 41 47 48 44 42 41 39 39 39 37 32 35 41 36 29 28 28 29 31 33 31 29 31 32 29 23 22 18 8 8 5 4 15 24 32 46 42 32 31 27 27 30 30 30 27 24 26 28 30 34 35 34
47 47 50 50 44 39 38 37 35 34 33 35 44 56 61 59 59 57 53 51 48 42 38 40 40 38 38 38 38 36 33 36 41 40 42 42 42 46 44 39 39 38 34 34 38 40 36 34 40 42 37 34 37 35 33 34 34 35 37 33 26 17 14 17 11 4 6 2 6 25 39 45 43 39 39 36 36 40 34 26 25 27 29 31 36 38 35 37
48 50 54 53 46 42 42 39 36 34 35 40 49 57 61 61 60 57 54 53 50 46 46 47 44 40 40 40 38 35 33 37 41 41 42 42 42 45 43 37 36 34 31 31 35 40 38 31 30 38 39 36 39 39 38 40 39 38 39 35 32 24 16 20 17 9 6 3 5 20 25 36 48 46 40 39 41 41 32 27 31 34 35 39 41 40 38 40
51 54 57 54 46 44 46 41 36 35 39 47 53 57 60 60 58 57 56 55 53 50 50 50 47 43 42 42 40 38 38 39 41 42 43 43 43 44 43 39 38 36 34 31 31 36 39 34 30 36 38 35 39 42 44 47 44 42 42 38 36 33 25 20 20 21 15 4 3 6 11 39 54 39 35 42 42 40 34 35 40 40 42 45 44 42 42 44
53 56 58 55 50 48 47 45 41 40 44 50 54 57 59 58 58 57 55 54 53 51 50 50 48 46 46 45 44 43 42 41 44 43 44 47 47 45 45 42 40 38 35 32 31 33 37 37 36 40 44 43 46 51 50 48 43 41 42 42 41 39 32 17 13 27 30 18 14 6 7 46 60 40 42 50 43 42 43 43 46 45 47 49 45 44 46 48
55 58 59 57 54 51 50 49 48 46 50 54 55 56 57 57 57 56 55 54 53 52 51 51 52 51 49 48 47 45 43 44 46 46 47 49 49 49 48 45 42 40 34 30 30 32 34 36 37 41 45 47 49 50 47 44 40 37 37 39 39 39 40 28 15 25 30 29 32 14 6 46 69 54 55 59 53 54 56 56 56 52 51 49 45 48 51 53
57 60 60 59 58 55 51 49 48 50 55 57 56 55 56 56 57 56 56 55 53 52 51 53 55 53 51 50 47 45 45 46 49 51 50 50 52 53 50 46 45 42 34 30 29 29 30 34 35 37 41 46 51 52 48 41 35 34 37 40 38 40 45 43 37 34 25 26 30 9 5 48 75 65 62 64 61 61 61 60 58 53 52 51 51 55 56 56
56 59 61 61 60 58 56 54 55 58 60 59 57 56 56 57 57 58 58 56 54 54 55 55 55 52 50 49 48 48 49 47 48 50 48 49 54 53 49 46 45 43 40 38 35 31 30 33 32 25 22 28 36 37 35 35 34 37 43 42 41 45 44 43 46 39 28 34 32 10 11 53 73 66 64 64 62 63 63 61 58 56 57 59 59 60 59 57
55 57 59 60 61 60 60 61 60 60 59 59 59 59 58 59 60 59 58 57 56 56 56 54 52 51 50 49 49 51 52 50 47 45 45 49 52 51 49 45 42 43 44 41 40 38 35 35 34 25 14 13 20 24 27 31 32 36 44 44 45 47 45 44 47 37 28 33 31 21 32 63 73 68 67 68 67 68 67 65 63 64 64 64 62 62 61 58
58 57 55 55 57 58 61 63 59 57 57 57 57 58 59 61 63 61 59 58 58 58 57 55 53 52 50 50 50 51 54 54 50 48 50 53 52 51 49 44 42 44 42 40 41 41 40 40 41 40 37 36 40 47 47 42 37 39 43 43 42 43 46 48 47 45 38 25 25 42 59 65 69 71 71 71 71 71 71 69 68 68 67 66 64 64 62 58
59 60 58 56 52 49 55 61 59 58 58 56 55 58 61 62 61 61 60 59 58 57 57 56 56 55 53 53 52 53 55 53 51 53 57 58 57 53 49 46 45 44 42 39 39 41 43 44 44 49 53 55 57 60 57 51 48 49 46 42 42 42 44 49 52 57 50 25 26 58 68 56 62 75 77 76 73 71 72 71 70 68 67 67 66 65 63 59
59 63 65 63 57 52 54 61 64 64 62 60 59 60 60 60 60 60 61 59 58 56 54 54 58 60 60 58 55 54 54 50 50 56 59 59 57 54 52 50 48 47 44 39 38 41 44 46 48 52 55 57 58 59 59 56 53 53 49 48 52 51 48 52 58 63 58 44 47 65 62 53 63 78 82 80 74 71 72 72 71 70 69 69 67 65 63 60
58 62 65 65 65 63 62 64 66 66 64 62 61 61 61 62 62 61 59 58 59 58 55 56 60 61 63 62 58 55 52 49 51 56 57 56 54 52 52 50 48 48 44 39 38 39 43 46 48 51 53 55 56 58 60 57 54 54 53 53 60 63 58 57 62 67 68 65 66 66 59 60 72 82 84 80 75 74 74 75 75 73 72 71 67 65 64 60
56 59 62 66 68 68 67 65 64 63 61 58 58 59 61 62 61 59 57 58 59 59 58 58 59 61 61 59 55 55 56 57 58 57 55 53 51 49 47 46 45 44 41 39 38 38 43 46 46 47 47 48 54 59 57 53 52 51 49 54 64 67 60 59 67 73 70 65 65 62 57 65 80 86 82 78 77 77 76 76 76 73 71 69 66 66 65 60
57 56 57 62 67 68 67 66 65 65 64 62 62 63 63 64 63 61 60 59 58 58 57 56 56 57 57 54 53 56 59 60 60 59 55 53 51 47 46 45 44 42 41 41 38 38 43 46 46 44 39 41 51 54 48 46 44 39 43 57 67 65 59 63 72 72 63 58 59 57 58 70 83 83 76 75 76 75 74 75 74 72 70 68 68 67 62 56
57 58 57 58 61 63 65 66 65 65 67 69 70 71 70 67 65 62 60 60 59 57 56 56 56 55 56 57 57 56 56 54 54 54 50 48 49 50 49 49 46 44 44 43 39 40 42 43 44 41 34 40 50 49 45 37 24 25 45 62 64 63 64 70 75 71 62 57 58 60 68 79 84 78 74 74 75 73 73 74 74 74 73 70 70 66 57 51
Wind_Direction
269 276 283 289 293 294 295 297 300 303 307 311 317 321 325 328 330 333 335 338 341 344 345 346 345 349 353 360 5 10 15 16 18 19 21 24 22 21 21 19 18 19 18 17 15 11 8 4 355 346 344 345 340 333 326 320 311 300 294 290 287 289 292 293 293 292 293 294 291 289 286 287 289 288 289 289 291 295 295 296 300 302 304 304 302 299 297 295
266 271 278 284 289 292 294 295 297 300 303 306 310 314 319 321 323 325 327 328 331 333 335 338 337 338 338 341 347 351 358 1 1 5 12 15 12 12 15 15 15 15 15 14 14 10 6 6 5 358 353 350 344 336 327 321 309 297 294 292 290 292 295 296 297 296 297 297 294 290 288 289 289 288 287 288 292 294 293 299 302 301 301 300 297 295 294 293
264 267 272 277 282 287 290 293 295 298 300 302 305 307 312 314 317 318 319 319 320 321 322 325 328 328 328 328 329 331 337 340 342 353 359 359 356 357 360 4 6 7 9 8 9 7 2 2 2 359 355 351 346 338 331 326 316 306 301 300 297 298 299 297 297 297 297 297 295 292 291 291 292 289 287 290 292 290 294 302 299 296 297 295 292 291 289 288
262 263 265 269 273 278 283 288 291 294 297 300 302 303 304 307 310 311 312 311 311 312 311 313 315 317 320 318 319 319 321 325 328 338 340 338 339 341 344 348 351 355 358 356 358 357 352 353 355 354 350 347 342 338 333 326 319 310 305 305 303 303 301 298 296 296 296 296 294 294 292 293 293 289 290 292 291 293 302 302 293 292 293 290 289 287 286 287
258 259 260 262 265 270 275 280 285 291 294 296 298 300 301 301 304 306 308 307 305 305 303 303 304 306 308 308 310 309 313 319 318 322 325 323 324 326 330 334 335 338 341 341 343 341 340 343 344 340 339 336 331 332 329 321 317 310 307 305 304 305 301 297 296 296 296 294 293 293 292 293 292 291 293 291 294 306 308 295 290 290 288 286 287 286 287 288
254 255 257 259 261 264 268 273 279 284 289 293 295 297 299 298 299 302 304 304 302 300 298 297 297 299 299 301 303 301 305 310 312 316 316 313 314 315 319 323 325 326 328 331 330 328 331 334 333 329 326 319 315 319 318 316 314 310 308 304 303 304 299 297 296 296 296 293 293 293 293 294 294 294 293 295 308 317 305 294 292 290 287 285 283 284 286 287
253 254 256 257 259 261 264 268 273 279 285 288 291 292 294 296 297 298 300 301 300 298 296 292 292 293 294 295 296 296 299 304 308 311 310 309 310 311 313 316 318 319 320 323 324 324 324 323 323 321 315 308 303 305 306 305 305 304 301 299 300 300 296 295 294 295 294 292 292 292 292 294 293 293 295 306 326 313 298 294 290 287 285 283 282 284 285 284
255 255 256 257 260 262 264 267 271 276 280 284 288 289 290 293 294 294 296 297 296 295 293 291 290 288 290 291 292 294 296 301 306 308 310 309 309 311 311 312 314 316 317 319 321 322 319 316 315 314 314 310 302 300 301 300 300 297 292 291 294 294 293 292 291 290 290 290 290 289 290 290 288 290 299 317 315 293 289 288 285 285 285 285 286 286 285 285
256 256 257 258 259 261 264 266 270 273 277 281 284 286 289 291 292 293 292 292 291 290 290 289 288 286 286 286 288 292 295 302 306 311 314 313 312 311 311 313 313 315 317 318 319 318 315 313 310 310 312 312 307 304 303 301 300 298 292 288 289 291 289 289 290 288 288 290 289 289 289 288 286 290 302 316 296 288 288 288 289 288 287 288 287 287 286 285
257 258 259 259 259 261 263 266 268 271 275 278 281 285 287 289 291 291 291 289 286 284 284 285 285 285 283 283 286 288 293 301 304 311 316 316 315 313 313 314 315 318 317 316 317 316 314 311 309 307 307 309 308 307 307 304 301 299 295 291 290 290 287 287 287 286 289 290 289 290 288 288 288 289 297 304 296 295 293 292 293 293 292 290 288 286 285 285
260 261 261 262 262 262 263 265 267 270 272 275 280 283 285 288 290 289 289 288 285 282 279 279 280 280 279 279 280 283 290 296 298 308 314 315 315 314 316 316 317 318 315 314 313 313 312 309 307 304 303 304 305 307 308 305 302 300 297 296 294 291 288 287 285 283 286 288 289 289 288 286 286 290 297 296 296 297 293 292 294 295 295 293 292 290 287 287
261 262 263 263 264 264 264 265 266 268 270 273 276 281 284 286 288 289 288 286 284 281 277 276 274 274 273 272 273 278 285 289 294 303 309 312 313 314 316 316 316 314 313 312 309 309 308 306 304 301 299 297 299 304 305 304 304 302 300 299 297 293 290 287 284 282 282 285 288 290 288 286 286 294 298 290 292 294 291 292 294 294 296 295 294 293 292 291
262 263 263 263 264 265 265 265 265 265 267 270 272 276 280 282 286 288 287 286 283 280 276 274 271 269 268 267 268 273 278 282 288 296 301 306 310 313 314 314 314 313 312 309 307 306 304 302 301 297 295 293 292 295 299 302 303 303 301 299 298 296 294 291 286 283 283 285 288 289 288 290 295 299 294 288 289 290 290 292 295 296 297 295 295 293 292 292
260 261 263 264 265 265 266 265 265 265 265 267 269 272 276 278 281 284 285 285 282 279 275 272 269 266 265 265 265 268 273 277 283 289 293 299 307 310 312 313 313 311 310 307 304 302 300 299 297 293 292 290 288 290 294 298 300 302 301 299 299 298 298 297 292 289 288 288 288 285 283 291 302 303 293 290 289 290 291 292 295 298 298 297 295 292 291 290
260 260 261 262 263 265 266 266 267 267 265 266 268 270 273 275 277 280 282 283 282 280 275 271 268 265 264 263 264 265 267 272 278 280 282 293 301 304 307 310 310 308 307 304 302 299 297 295 292 290 288 287 286 285 288 293 296 299 298 299 300 299 299 298 294 292 291 291 288 283 281 289 301 305 299 295 291 292 294 293 296 299 299 297 295 292 291 290
261 262 262 262 263 264 266 267 268 268 268 268 268 269 271 273 274 276 277 279 279 278 275 272 269 267 266 263 262 261 264 269 271 271 279 289 293 297 303 305 305 306 304 301 299 297 294 292 289 287 285 284 283 282 285 288 291 295 294 297 300 300 300 297 296 294 293 293 290 285 281 286 297 304 301 297 294 293 295 297 300 300 299 298 295 290 287 288
262 263 264 265 265 266 267 268 269 270 271 271 270 270 271 272 273 274 275 276 276 275 274 272 270 268 266 265 263 262 264 266 265 270 279 283 287 294 298 299 302 303 300 298 296 294 293 289 287 284 282 281 279 279 281 283 288 292 293 295 300 302 301 298 298 297 294 292 291 287 282 286 296 301 299 297 294 293 296 300 300 300 301 300 292 282 279 283
262 263 264 265 266 268 269 270 271 273 273 274 274 272 271 271 271 272 272 273 273 274 272 271 270 268 267 267 265 262 262 263 266 273 278 280 285 290 292 295 299 299 296 295 294 293 291 288 286 282 279 278 277 275 274 279 286 290 291 294 299 301 300 300 302 299 295 291 290 287 284 289 295 297 297 297 295 295 297 299 300 301 301 297 287 276 274 278
263 263 264 265 266 267 269 270 271 272 274 275 276 276 275 273 272 272 272 271 271 270 271 271 268 267 266 267 269 267 264 266 270 273 276 280 283 285 288 292 294 295 295 293 292 291 288 286 283 279 281 287 284 276 273 277 283 285 287 290 296 299 299 303 306 301 295 290 288 288 288 290 293 294 297 296 293 294 296 298 300 299 297 292 285 277 273 277
263 263 264 266 266 267 268 269 270 271 273 275 276 278 278 277 275 273 271 271 271 270 269 269 268 267 267 268 269 269 268 270 271 273 276 278 280 282 284 287 289 291 294 291 288 287 285 281 279 282 293 296 284 274 274 276 278 281 284 286 292 296 298 306 308 300 296 292 291 293 292 290 291 294 297 295 291 291 295 296 295 296 296 292 287 283 278 279
262 263 264 265 266 268 268 269 270 272 274 276 278 278 278 279 279 278 274 270 269 269 268 268 268 267 267 269 267 267 269 270 271 274 276 276 277 278 280 284 286 290 291 288 283 282 280 277 281 290 294 286 276 273 274 275 276 279 281 284 290 293 297 306 306 299 297 293 294 297 294 291 293 295 297 295 291 292 293 288 291 300 298 291 290 287 279 279
261 262 263 264 265 267 268 269 271 273 274 277 278 280 280 281 281 282 282 276 269 266 267 267 267 267 267 267 267 268 269 270 271 273 274 275 276 276 280 283 286 288 286 280 277 278 277 277 284 291 286 279 274 273 275 276 276 277 279 284 288 292 298 303 304 300 297 295 297 299 296 294 295 296 297 296 295 293 282 286 299 300 293 292 294 287 280 282
260 261 262 263 264 266 267 269 270 272 274 276 277 279 281 282 283 284 284 283 277 270 267 266 266 266 266 266 266 267 268 269 270 272 273 274 275 276 278 282 284 283 278 274 274 272 272 278 284 285 284 281 274 272 276 277 275 276 280 284 286 292 299 300 301 300 296 296 298 300 298 297 299 299 298 299 301 286 268 296 303 291 290 297 292 286 283 285
260 260 260 261 263 265 267 268 270 271 272 274 276 278 280 282 284 285 286 286 282 276 271 269 267 264 264 264 264 264 266 268 269 271 272 272 273 274 275 278 278 274 270 270 269 265 269 277 280 281 282 280 275 275 276 277 276 278 281 283 286 291 296 297 299 298 295 295 297 303 304 301 303 307 301 301 302 294 291 300 295 279 295 296 286 282 283 290
260 260 260 261 262 263 266 267 269 270 272 273 274 276 278 280 283 286 288 288 286 280 276 274 272 267 264 261 261 263 265 265 267 269 270 270 270 269 270 270 268 267 266 268 266 264 269 277 279 279 277 275 274 274 275 276 276 277 281 285 286 290 294 297 298 296 295 295 296 310 315 303 298 190 277 292 296 298 300 298 283 285 297 293 284 275 283 299
261 261 261 261 261 262 265 267 268 269 270 271 273 274 275 277 281 284 287 288 285 282 281 278 274 269 265 261 260 261 262 263 266 267 266 266 264 263 263 261 260 262 264 269 267 264 271 279 279 279 275 272 271 272 275 275 274 275 281 285 284 287 294 297 296 293 293 289 288 301 303 287 280 266 276 291 296 296 300 298 292 293 291 283 272 268 285 300
264 264 264 263 262 262 263 265 267 267 269 270 270 272 273 275 277 281 287 290 283 283 283 274 268 267 266 265 263 259 258 263 265 264 263 261 258 256 256 257 261 263 264 266 261 264 277 281 280 279 274 270 268 273 278 276 272 274 280 283 282 288 295 295 293 290 289 287 285 291 285 276 279 277 284 294 294 294 298 296 298 301 291 272 258 268 285 292
265 265 266 265 264 263 263 264 265 265 267 268 269 271 272 274 276 278 282 283 279 285 280 259 258 264 265 265 265 259 259 265 265 263 261 256 253 251 253 260 264 262 262 261 259 268 278 277 276 276 271 270 271 275 277 273 271 273 278 281 283 289 292 291 292 288 290 290 285 287 282 267 275 279 288 294 286 292 298 290 299 304 291 270 268 276 282 289
265 265 265 265 264 262 262 262 262 263 264 265 267 270 271 273 276 277 271 255 259 271 261 250 251 258 265 268 268 266 265 266 262 261 261 256 254 254 257 262 262 260 260 260 262 268 273 272 274 272 269 272 273 273 272 271 271 273 277 281 284 289 288 289 289 285 288 285 273 284 277 248 274 279 279 285 282 289 295 291 302 300 275 272 280 275 277 294
265 264 264 264 262 261 261 260 259 260 262 263 265 267 268 271 270 264 250 243 254 261 254 249 251 255 262 265 266 267 265 262 258 257 258 256 256 258 258 259 259 260 261 260 263 267 269 270 270 269 270 272 271 270 271 272 272 274 277 280 284 287 288 288 284 282 288 274 270 285 274 248 267 280 276 282 285 290 294 296 300 284 264 281 280 270 278 295
267 266 264 263 262 260 259 259 258 258 260 261 262 264 265 267 261 242 233 253 260 262 254 249 253 256 259 261 263 264 261 258 255 254 255 254 254 255 254 254 255 257 258 258 263 268 268 268 269 271 272 272 271 270 272 272 273 274 275 277 282 289 293 290 278 271 266 265 280 288 276 243 235 262 277 281 284 289 295 296 286 264 276 287 277 269 281 296
269 267 266 264 263 262 260 259 258 257 258 258 259 260 259 260 249 233 234 252 261 264 254 250 255 256 257 257 256 257 257 256 256 255 255 253 253 253 252 252 253 252 256 260 266 269 268 269 270 272 271 271 270 268 270 271 270 270 269 269 274 295 313 290 252 242 227 260 281 283 276 241 244 265 275 275 279 287 293 292 277 277 288 286 273 273 285 298
272 270 268 266 265 263 261 260 259 256 256 256 256 256 252 247 245 239 236 240 243 255 259 253 254 253 251 250 249 252 254 256 258 255 253 251 251 252 249 249 250 248 253 261 265 267 269 271 268 267 269 268 266 266 268 271 271 270 266 260 249 194 32 274 245 282 260 270 280 275 270 258 262 275 279 277 281 283 289 294 290 288 289 281 276 281 291 301
273 271 269 268 267 265 262 261 259 258 257 255 253 251 240 234 244 246 243 247 250 256 260 260 258 253 250 248 249 251 252 256 258 253 251 250 249 250 247 246 248 248 252 256 258 260 265 269 268 266 266 267 267 269 272 272 269 267 265 257 244 226 219 240 250 261 275 290 288 263 232 253 267 279 283 288 286 271 287 295 289 284 283 279 281 287 296 302
273 272 271 269 267 266 265 262 259 257 255 252 249 244 236 236 243 249 252 255 255 256 260 261 259 255 253 253 252 253 252 253 254 251 250 249 250 253 253 250 250 249 248 246 251 256 254 262 269 266 262 266 269 270 271 265 257 258 256 244 240 242 240 241 257 265 277 306 287 246 239 263 273 278 279 283 283 276 287 292 280 278 281 280 284 291 300 304
276 275 274 271 268 267 266 263 260 256 253 251 244 240 243 246 250 252 256 259 258 259 260 258 256 252 251 254 254 253 250 249 251 250 249 250 253 256 256 256 254 251 248 247 249 253 251 262 271 268 264 266 267 269 266 256 249 251 248 241 244 250 245 237 254 269 274 294 274 261 264 274 280 284 281 283 282 277 285 289 281 279 282 283 288 297 303 306
277 277 275 272 271 271 268 264 259 253 250 247 241 244 250 253 255 256 258 260 259 261 259 253 253 252 250 253 255 254 248 245 248 248 248 251 255 258 257 258 258 255 256 255 252 253 254 261 268 268 266 267 268 267 259 250 247 243 243 248 251 251 242 232 243 282 265 246 271 270 272 277 280 282 283 285 284 283 287 288 281 275 280 288 295 300 302 305
276 276 274 271 271 272 269 261 254 250 246 242 243 250 254 255 257 257 258 258 259 259 256 251 253 253 253 254 255 255 248 243 246 247 249 251 254 260 260 261 263 264 265 258 250 251 252 255 264 266 265 269 270 263 250 247 245 240 245 250 245 235 224 219 212 252 259 198 279 275 275 276 270 267 274 280 284 290 290 281 274 277 284 294 299 299 299 303
273 273 272 271 270 268 265 257 248 242 239 238 243 250 253 255 257 258 258 259 259 257 254 253 253 252 252 253 254 255 251 249 250 249 250 251 254 260 262 263 266 269 269 257 247 249 247 244 257 262 262 265 261 251 245 246 243 237 240 241 237 235 226 222 216 218 242 190 260 278 280 277 272 270 276 282 287 292 288 277 278 283 288 295 299 298 299 302
268 267 267 268 266 263 264 260 248 236 235 240 245 250 254 256 258 260 261 261 259 256 255 256 254 249 250 252 252 254 253 253 253 249 249 251 255 261 264 265 267 268 269 257 244 243 240 236 246 257 259 256 252 254 257 256 251 242 237 234 235 232 223 231 236 231 231 212 247 275 276 274 276 278 282 286 290 290 285 282 283 284 288 294 298 298 299 303
267 262 262 265 263 260 261 257 249 243 242 246 248 250 253 258 260 261 262 261 260 258 257 257 254 251 251 252 251 253 252 251 252 249 248 252 254 259 264 268 270 269 264 251 241 239 236 234 239 247 253 256 259 265 265 260 257 253 249 247 249 242 228 226 246 239 233 225 233 221 261 271 273 277 281 284 288 287 286 286 285 285 290 294 297 298 300 303
267 262 263 265 263 262 259 255 255 253 250 251 254 254 255 258 260 261 262 261 260 258 257 256 255 253 251 251 252 253 251 251 252 250 250 252 256 261 267 271 270 267 262 252 251 252 243 236 236 241 251 260 265 265 262 259 257 255 254 252 253 249 236 224 229 243 236 230 238 236 254 269 271 274 279 281 282 284 286 286 285 286 290 294 296 298 301 304
263 264 265 265 263 263 258 253 253 251 252 256 259 258 256 256 258 260 261 260 258 258 256 255 255 252 249 250 250 250 249 250 252 252 252 255 260 264 266 267 266 263 258 251 251 250 238 230 232 241 251 256 259 261 262 263 258 251 251 249 246 247 244 238 238 245 246 238 236 220 238 265 271 276 278 280 281 284 286 285 286 287 289 293 296 298 302 305
264 264 263 262 261 259 255 252 252 251 253 258 258 256 254 254 256 258 259 259 259 259 258 256 254 250 249 250 249 250 251 249 251 254 254 257 262 265 263 261 261 258 255 254 253 249 238 230 229 237 252 256 257 259 259 256 253 251 254 253 250 249 248 243 240 241 251 248 235 191 237 261 270 276 277 280 282 282 284 285 285 287 289 293 295 297 301 303
262 256 253 254 253 252 254 257 257 255 256 257 257 257 257 256 258 260 260 260 260 260 258 255 252 250 250 250 249 251 251 249 251 254 256 258 260 263 262 259 258 258 258 259 256 251 247 241 233 228 230 242 248 251 252 252 254 254 254 255 255 254 248 242 240 237 243 245 231 217 246 262 270 275 275 277 279 279 282 283 282 285 289 292 293 295 299 301
260 248 240 242 243 244 251 257 255 252 254 255 254 255 256 256 258 260 260 259 259 258 254 251 250 250 249 248 247 250 251 249 249 250 254 257 258 260 262 260 261 262 262 258 252 248 247 246 242 238 238 241 247 254 259 261 259 256 257 259 259 260 255 245 239 238 239 236 231 241 252 261 269 274 274 274 275 276 279 280 281 283 287 289 290 293 297 299
257 251 244 243 240 238 246 253 252 251 252 250 248 252 255 255 257 258 258 258 258 256 252 249 249 247 246 246 246 248 251 249 247 249 254 257 257 258 260 261 262 263 261 256 249 245 242 243 244 243 244 247 250 255 259 261 259 258 260 262 262 264 259 244 239 245 245 233 240 253 257 259 266 274 277 275 274 276 278 280 281 283 285 287 289 293 297 298
251 253 255 255 250 245 249 255 258 259 257 254 251 253 253 252 254 256 258 259 257 254 250 248 249 248 249 250 247 246 249 247 245 250 254 255 255 256 258 261 262 262 259 254 247 244 241 241 244 245 247 249 251 254 256 256 257 258 258 261 263 265 260 249 249 255 251 240 247 258 261 262 267 273 276 277 277 278 280 282 282 282 284 287 291 294 296 298
250 251 255 257 255 254 257 261 263 263 263 260 254 252 253 253 255 257 259 258 256 255 252 249 252 254 254 252 247 243 244 245 246 250 253 254 256 257 258 260 261 260 258 252 248 247 243 243 247 249 249 250 252 255 257 254 254 255 256 260 263 262 259 257 259 263 258 253 256 262 263 264 268 272 274 276 278 278 279 280 281 284 286 289 292 293 295 298
250 251 255 256 256 257 259 259 258 257 258 256 252 254 257 256 256 259 258 256 256 257 255 254 259 261 257 252 246 242 246 250 251 255 258 258 258 258 256 256 258 259 257 253 251 249 247 248 251 252 252 253 255 256 257 255 256 257 259 261 262 260 259 257 259 261 259 258 262 265 263 263 270 274 274 274 278 279 279 280 284 287 289 290 290 291 295 297
249 252 256 257 256 257 256 256 255 253 252 252 251 255 257 256 260 264 260 258 260 260 260 263 267 266 260 253 248 249 257 260 259 263 267 263 260 260 258 258 259 259 257 255 253 250 249 251 252 252 253 255 256 257 258 258 259 261 259 257 257 257 256 256 257 258 258 260 264 266 263 265 272 277 276 277 280 281 280 283 286 287 288 289 288 291 295 293
247 250 253 255 256 256 256 257 255 249 249 254 258 259 259 260 266 266 257 255 259 261 263 267 268 266 260 258 258 263 271 274 274 275 275 268 261 259 260 263 264 262 259 257 254 249 247 249 251 250 250 254 256 257 258 257 258 253 250 251 254 256 256 257 259 260 260 262 263 263 265 270 276 279 278 279 280 279 281 285 287 287 288 288 288 292 294 288
Height
3200 3200 3200 3200 3200 3200 3200 3200 3200 3200 3200 3200 3200 3199 3199 3198 3198 3197 3197 3197 3196 3196 3195 3195 3194 3194 3193 3193 3192 3192 3191 3191 3190 3190 3189 3189 3188 3188 3187 3186 3185 3184 3183 3182 3182 3181 3180 3180 3179 3179 3178 3178 3177 3177 3177 3177 3176 3176 3175 3175 3174 3174 3173 3173 3173 3172 3171 3171 3170 3170 3170 3169 3169 3169 3168 3167 3166 3166 3165 3165 3164 3164 3164 3163 3163 3162 3162 3162
3199 3199 3200 3200 3200 3200 3200 3200 3199 3199 3199 3199 3199 3199 3198 3198 3198 3197 3197 3196 3196 3195 3195 3194 3194 3193 3193 3192 3192 3192 3191 3191 3191 3190 3189 3189 3189 3188 3188 3187 3186 3185 3184 3183 3182 3181 3181 3180 3179 3178 3178 3177 3177 3177 3176 3176 3176 3175 3175 3174 3174 3173 3172 3172 3172 3171 3170 3170 3169 3169 3168 3168 3167 3167 3166 3165 3164 3164 3163 3163 3162 3161 3162 3161 3161 3160 3160 3159
3199 3199 3199 3199 3199 3199 3199 3199 3199 3198 3198 3198 3198 3198 3198 3197 3197 3197 3196 3196 3195 3195 3194 3194 3194 3193 3192 3192 3191 3191 3191 3191 3190 3190 3189 3189 3189 3188 3188 3187 3186 3186 3185 3184 3183 3183 3182 3181 3179 3179 3178 3177 3177 3176 3175 3175 3175 3174 3174 3173 3173 3172 3172 3171 3171 3170 3169 3169 3168 3167 3167 3166 3166 3165 3164 3163 3162 3161 3161 3161 3160 3159 3159 3159 3158 3158 3157 3157
3198 3198 3198 3198 3198 3198 3198 3198 3197 3197 3197 3197 3197 3197 3197 3197 3196 3196 3195 3195 3194 3194 3194 3193 3193 3192 3192 3191 3191 3190 3190 3190 3190 3189 3189 3189 3188 3188 3187 3187 3186 3186 3185 3185 3184 3183 3182 3181 3180 3179 3178 3177 3176 3176 3175 3174 3174 3173 3173 3172 3172 3171 3171 3170 3169 3169 3168 3168 3167 3166 3165 3165 3164 3162 3162 3161 3160 3159 3160 3159 3157 3157 3157 3156 3156 3155 3155 3154
3196 3197 3197 3197 3197 3197 3196 3196 3196 3196 3196 3196 3196 3196 3196 3195 3195 3195 3194 3194 3193 3193 3193 3192 3192 3191 3191 3190 3190 3189 3189 3189 3189 3188 3188 3188 3187 3187 3187 3186 3186 3185 3185 3184 3184 3183 3182 3181 3180 3179 3178 3177 3176 3176 3175 3174 3173 3173 3172 3172 3171 3170 3170 3169 3168 3168 3167 3166 3165 3164 3163 3163 3162 3160 3159 3158 3157 3157 3157 3156 3155 3155 3154 3154 3153 3152 3152 3152
3195 3195 3195 3195 3196 3195 3195 3195 3195 3194 3194 3194 3194 3194 3194 3194 3194 3193 3193 3193 3192 3192 3191 3191 3190 3190 3190 3189 3189 3188 3188 3188 3187 3187 3187 3187 3186 3186 3185 3185 3184 3184 3184 3183 3183 3182 3181 3181 3180 3179 3178 3177 3176 3175 3175 3174 3173 3172 3171 3171 3170 3169 3169 3168 3167 3166 3166 3165 3164 3163 3162 3161 3160 3158 3157 3156 3155 3155 3154 3153 3152 3152 3151 3151 3150 3150 3150 3149
3193 3194 3194 3194 3194 3194 3194 3194 3193 3193 3193 3192 3192 3192 3192 3192 3192 3192 3192 3191 3191 3190 3190 3190 3189 3189 3188 3188 3188 3187 3187 3186 3186 3186 3186 3185 3185 3184 3184 3184 3183 3183 3182 3182 3181 3181 3180 3179 3179 3178 3177 3176 3175 3174 3174 3173 3172 3171 3170 3169 3169 3168 3168 3167 3166 3165 3164 3163 3163 3162 3161 3160 3159 3157 3155 3154 3154 3153 3151 3150 3150 3149 3148 3148 3148 3148 3147 3146
3192 3192 3193 3193 3193 3193 3193 3193 3192 3192 3192 3191 3191 3191 3191 3191 3190 3190 3190 3190 3189 3189 3189 3188 3188 3187 3187 3187 3186 3186 3185 3185 3185 3185 3184 3184 3183 3183 3182 3182 3182 3181 3181 3180 3180 3179 3178 3178 3177 3177 3176 3175 3174 3173 3172 3172 3171 3170 3169 3168 3168 3167 3166 3166 3165 3164 3163 3162 3161 3160 3159 3159 3157 3155 3154 3153 3152 3150 3149 3148 3147 3146 3145 3145 3145 3144 3144 3143
3190 3191 3191 3191 3191 3192 3191 3191 3191 3191 3190 3190 3190 3189 3189 3189 3189 3189 3188 3188 3188 3187 3187 3187 3186 3186 3186 3185 3185 3184 3184 3184 3184 3183 3183 3182 3182 3181 3181 3180 3180 3179 3179 3179 3178 3178 3177 3176 3176 3175 3174 3173 3172 3172 3171 3170 3169 3168 3168 3167 3166 3166 3165 3164 3163 3162 3161 3160 3159 3158 3157 3156 3155 3154 3153 3152 3150 3148 3147 3146 3145 3144 3143 3142 3142 3141 3140 3140
3189 3189 3189 3190 3190 3190 3190 3190 3190 3189 3189 3189 3188 3188 3188 3188 3187 3187 3187 3186 3186 3186 3185 3185 3185 3184 3184 3184 3184 3183 3183 3182 3182 3182 3181 3181 3180 3180 3179 3179 3178 3178 3177 3177 3176 3176 3175 3175 3174 3173 3172 3172 3171 3170 3169 3168 3167 3166 3166 3165 3164 3164 3163 3162 3162 3160 3159 3158 3157 3155 3155 3154 3153 3152 3151 3150 3148 3147 3145 3144 3143 3142 3141 3140 3139 3138 3137 3136
3187 3187 3188 3188 3188 3188 3188 3188 3188 3188 3188 3187 3187 3186 3186 3186 3186 3185 3185 3184 3184 3184 3184 3183 3183 3183 3183 3182 3182 3182 3181 3181 3181 3180 3180 3179 3179 3178 3178 3177 3177 3176 3176 3175 3174 3174 3173 3173 3172 3172 3171 3170 3169 3168 3167 3166 3165 3165 3164 3163 3162 3161 3161 3160 3159 3158 3157 3156 3155 3153 3151 3150 3150 3149 3149 3147 3145 3144 3143 3142 3141 3139 3138 3137 3135 3135 3134 3133
3185 3185 3186 3186 3186 3186 3186 3186 3186 3186 3186 3186 3185 3185 3184 3184 3184 3183 3183 3183 3182 3182 3182 3182 3181 3181 3181 3181 3180 3180 3180 3180 3179 3179 3178 3178 3177 3177 3176 3176 3175 3175 3174 3173 3172 3172 3171 3171 3170 3170 3169 3168 3167 3167 3165 3165 3164 3163 3162 3161 3160 3159 3158 3158 3157 3156 3155 3154 3153 3151 3147 3145 3147 3147 3146 3145 3143 3142 3140 3139 3139 3137 3136 3134 3133 3131 3130 3130
3182 3183 3183 3184 3184 3184 3184 3184 3184 3184 3184 3184 3183 3183 3182 3182 3182 3181 3181 3181 3181 3180 3180 3180 3180 3179 3179 3179 3179 3178 3178 3178 3177 3177 3177 3176 3176 3175 3175 3174 3173 3173 3172 3171 3170 3170 3169 3168 3168 3167 3167 3166 3166 3165 3164 3163 3162 3161 3160 3158 3157 3156 3155 3155 3155 3153 3153 3152 3150 3150 3143 3138 3143 3145 3144 3143 3140 3139 3137 3136 3136 3134 3133 3132 3130 3128 3127 3126
3180 3180 3181 3181 3181 3182 3182 3182 3182 3182 3182 3181 3181 3181 3180 3180 3180 3179 3179 3179 3178 3178 3178 3178 3177 3177 3177 3177 3177 3176 3176 3176 3176 3175 3175 3174 3174 3174 3173 3172 3172 3171 3170 3169 3168 3167 3167 3166 3166 3165 3165 3164 3164 3163 3162 3161 3160 3159 3158 3156 3155 3154 3152 3152 3153 3151 3151 3150 3148 3148 3141 3134 3138 3142 3141 3140 3138 3136 3134 3133 3132 3131 3130 3128 3127 3125 3124 3123
3177 3177 3178 3178 3179 3179 3179 3180 3180 3180 3179 3179 3179 3178 3178 3177 3177 3177 3177 3176 3176 3176 3176 3176 3175 3175 3175 3175 3174 3174 3174 3174 3173 3173 3173 3172 3172 3171 3171 3170 3169 3169 3168 3167 3166 3165 3164 3164 3163 3163 3162 3162 3161 3160 3160 3159 3158 3157 3156 3155 3154 3152 3151 3150 3150 3149 3148 3147 3145 3144 3138 3131 3135 3138 3137 3136 3135 3133 3130 3129 3129 3127 3126 3125 3123 3121 3120 3119
3175 3175 3175 3175 3176 3176 3176 3177 3177 3177 3177 3177 3176 3176 3175 3174 3175 3174 3174 3174 3174 3174 3173 3173 3173 3173 3172 3172 3172 3171 3171 3171 3171 3171 3170 3170 3169 3169 3168 3168 3167 3166 3165 3164 3164 3163 3162 3161 3160 3160 3160 3159 3159 3158 3157 3156 3155 3155 3154 3153 3152 3150 3149 3148 3147 3146 3145 3144 3141 3140 3134 3129 3131 3134 3134 3132 3131 3129 3126 3125 3125 3123 3122 3121 3119 3117 3116 3115
3172 3172 3172 3173 3173 3173 3173 3174 3174 3174 3174 3174 3173 3173 3172 3172 3171 3171 3171 3171 3171 3171 3171 3170 3170 3170 3169 3169 3169 3169 3169 3169 3169 3168 3168 3167 3167 3166 3166 3165 3164 3164 3162 3161 3161 3160 3159 3158 3158 3157 3157 3157 3156 3156 3155 3153 3152 3152 3151 3150 3149 3148 3147 3145 3144 3143 3141 3140 3138 3135 3130 3126 3127 3130 3130 3128 3127 3125 3123 3122 3121 3119 3118 3117 3115 3113 3112 3111
3170 3170 3170 3170 3170 3171 3170 3170 3171 3171 3171 3171 3170 3170 3170 3169 3168 3168 3168 3168 3167 3168 3167 3167 3168 3167 3166 3166 3166 3166 3167 3166 3166 3166 3165 3165 3164 3163 3163 3162 3161 3160 3160 3158 3157 3157 3156 3155 3155 3154 3154 3154 3153 3153 3152 3150 3150 3150 3149 3148 3146 3145 3144 3142 3141 3140 3137 3135 3133 3130 3126 3123 3123 3125 3125 3125 3123 3121 3119 3118 3116 3115 3114 3113 3110 3109 3108 3107
3167 3167 3167 3167 3167 3167 3167 3167 3168 3167 3167 3167 3167 3167 3166 3166 3165 3164 3164 3164 3164 3164 3164 3164 3164 3163 3163 3164 3164 3164 3164 3164 3163 3163 3162 3162 3161 3160 3160 3159 3158 3158 3157 3155 3154 3154 3153 3153 3152 3150 3151 3151 3151 3151 3150 3148 3148 3147 3146 3145 3143 3141 3140 3140 3138 3136 3134 3130 3128 3126 3122 3119 3119 3119 3120 3121 3119 3116 3115 3114 3113 3112 3111 3109 3106 3105 3104 3104
3163 3164 3164 3164 3164 3164 3164 3164 3164 3164 3164 3163 3164 3163 3162 3162 3161 3161 3161 3160 3160 3160 3160 3160 3159 3160 3160 3161 3161 3161 3161 3160 3160 3160 3159 3159 3158 3157 3157 3156 3155 3155 3154 3152 3151 3151 3150 3149 3148 3147 3148 3149 3149 3148 3147 3146 3145 3144 3144 3142 3141 3138 3135 3137 3136 3132 3130 3124 3120 3122 3118 3114 3114 3113 3115 3116 3114 3112 3111 3110 3109 3109 3107 3105 3103 3102 3101 3101
3159 3160 3160 3161 3161 3161 3160 3160 3160 3161 3160 3160 3160 3160 3159 3158 3157 3157 3156 3156 3156 3156 3156 3156 3155 3155 3156 3157 3157 3157 3157 3156 3156 3156 3155 3155 3155 3153 3153 3153 3152 3151 3151 3150 3148 3147 3147 3146 3145 3145 3146 3146 3146 3145 3144 3143 3142 3141 3141 3139 3137 3135 3132 3133 3133 3128 3126 3120 3114 3116 3112 3107 3109 3109 3109 3109 3109 3108 3107 3105 3105 3105 3103 3101 3099 3099 3098 3098
3155 3156 3157 3157 3158 3158 3157 3157 3157 3157 3157 3157 3156 3156 3155 3155 3154 3153 3151 3150 3151 3152 3151 3151 3151 3151 3152 3153 3153 3153 3152 3151 3152 3152 3152 3151 3151 3150 3149 3149 3148 3148 3147 3146 3145 3144 3143 3142 3143 3143 3143 3143 3143 3141 3141 3140 3138 3138 3137 3136 3133 3132 3129 3128 3129 3125 3123 3117 3111 3110 3104 3098 3102 3104 3103 3102 3102 3103 3102 3101 3102 3100 3099 3097 3096 3095 3094 3094
3151 3152 3153 3153 3155 3154 3153 3153 3154 3154 3154 3154 3153 3152 3151 3151 3150 3149 3147 3143 3143 3146 3147 3146 3147 3147 3148 3148 3148 3148 3147 3147 3148 3148 3148 3147 3146 3146 3145 3145 3145 3144 3144 3142 3142 3141 3140 3140 3141 3140 3139 3139 3139 3138 3138 3136 3134 3134 3134 3133 3129 3129 3128 3124 3124 3123 3120 3115 3109 3106 3097 3089 3093 3095 3095 3097 3096 3098 3099 3098 3098 3096 3095 3094 3092 3091 3091 3091
3147 3148 3149 3150 3151 3151 3150 3150 3150 3151 3151 3150 3150 3149 3148 3147 3146 3145 3143 3138 3134 3138 3141 3142 3142 3142 3143 3143 3143 3143 3142 3142 3143 3143 3144 3142 3142 3142 3140 3141 3140 3140 3140 3139 3138 3137 3137 3138 3137 3137 3136 3136 3135 3135 3135 3132 3130 3130 3130 3129 3126 3126 3126 3121 3120 3118 3116 3114 3109 3105 3094 3080 3083 3087 3088 3092 3093 3093 3095 3093 3094 3093 3092 3091 3089 3088 3088 3087
3143 3144 3144 3146 3147 3147 3146 3146 3147 3147 3147 3147 3146 3146 3145 3144 3143 3142 3140 3133 3125 3128 3134 3136 3136 3136 3138 3138 3138 3139 3137 3137 3138 3139 3139 3138 3138 3137 3136 3137 3136 3136 3136 3135 3134 3132 3134 3135 3133 3133 3133 3132 3132 3131 3131 3130 3126 3125 3126 3126 3124 3123 3123 3120 3118 3115 3112 3111 3108 3109 3099 3076 3075 3083 3083 3086 3088 3088 3090 3088 3089 3090 3088 3087 3086 3085 3084 3083
3139 3139 3140 3142 3143 3144 3143 3142 3144 3144 3144 3144 3143 3143 3142 3141 3140 3139 3137 3129 3118 3120 3127 3130 3129 3129 3131 3132 3133 3134 3132 3131 3134 3134 3134 3134 3133 3132 3132 3133 3132 3132 3132 3132 3130 3128 3130 3132 3129 3129 3129 3128 3128 3127 3128 3127 3123 3121 3121 3123 3122 3119 3119 3117 3116 3113 3110 3107 3104 3112 3111 3082 3067 3075 3079 3080 3082 3083 3085 3085 3084 3085 3083 3083 3083 3081 3081 3080
3135 3135 3136 3137 3139 3140 3138 3138 3140 3140 3140 3140 3139 3139 3139 3138 3138 3137 3136 3126 3113 3113 3121 3123 3123 3123 3125 3127 3128 3129 3127 3126 3130 3130 3130 3130 3129 3129 3128 3128 3129 3128 3129 3128 3125 3124 3127 3127 3126 3126 3125 3124 3124 3123 3124 3124 3121 3117 3117 3119 3118 3116 3116 3113 3112 3112 3107 3103 3101 3107 3113 3091 3061 3061 3072 3074 3076 3077 3079 3081 3080 3080 3079 3078 3079 3077 3077 3076
3131 3131 3131 3133 3134 3135 3134 3134 3135 3136 3137 3136 3136 3136 3135 3135 3135 3134 3136 3126 3109 3109 3115 3116 3118 3119 3121 3123 3124 3125 3123 3124 3126 3125 3126 3126 3125 3125 3124 3125 3127 3125 3125 3124 3120 3121 3123 3121 3122 3122 3121 3120 3120 3120 3120 3120 3118 3115 3114 3114 3114 3114 3112 3110 3109 3108 3105 3100 3097 3099 3107 3095 3059 3051 3066 3068 3069 3073 3074 3076 3076 3075 3074 3074 3074 3073 3072 3071
3127 3127 3127 3128 3129 3130 3130 3130 3131 3132 3132 3132 3132 3132 3131 3132 3131 3131 3133 3121 3106 3106 3111 3112 3115 3117 3118 3119 3120 3121 3121 3121 3121 3121 3123 3123 3121 3122 3121 3122 3123 3120 3121 3119 3116 3118 3118 3117 3118 3117 3117 3116 3116 3117 3116 3116 3115 3112 3112 3110 3111 3110 3108 3108 3106 3105 3104 3096 3091 3092 3098 3092 3060 3045 3061 3064 3062 3068 3069 3071 3072 3070 3070 3070 3070 3069 3067 3066
3122 3122 3123 3123 3124 3126 3126 3126 3127 3127 3128 3128 3128 3128 3128 3128 3128 3129 3124 3109 3102 3106 3107 3108 3111 3113 3115 3116 3116 3117 3117 3117 3117 3117 3119 3118 3118 3118 3118 3119 3119 3117 3116 3114 3113 3114 3114 3113 3113 3112 3113 3113 3113 3113 3112 3112 3111 3109 3109 3107 3108 3107 3104 3106 3101 3102 3103 3088 3084 3087 3087 3088 3065 3043 3052 3058 3058 3063 3065 3066 3067 3065 3066 3066 3065 3064 3063 3062
3116 3117 3118 3118 3119 3121 3122 3122 3122 3123 3124 3124 3124 3124 3124 3123 3124 3121 3107 3097 3102 3104 3103 3106 3107 3109 3111 3111 3111 3112 3112 3112 3113 3114 3113 3113 3113 3112 3113 3114 3114 3113 3112 3110 3109 3110 3109 3108 3108 3108 3109 3109 3109 3109 3108 3108 3107 3106 3106 3105 3106 3104 3102 3101 3097 3100 3099 3082 3078 3081 3079 3083 3066 3041 3046 3053 3053 3058 3060 3061 3062 3061 3062 3062 3061 3060 3058 3058
3111 3111 3112 3113 3114 3115 3117 3117 3118 3120 3119 3120 3121 3120 3120 3120 3113 3102 3093 3096 3103 3100 3099 3103 3103 3104 3107 3106 3106 3108 3108 3107 3108 3109 3109 3109 3107 3106 3108 3109 3110 3110 3107 3105 3106 3106 3104 3103 3104 3105 3105 3106 3105 3105 3104 3103 3103 3102 3102 3103 3105 3105 3103 3100 3095 3096 3092 3079 3076 3076 3076 3072 3052 3036 3043 3048 3048 3052 3054 3056 3057 3057 3057 3056 3056 3055 3053 3053
3106 3106 3107 3108 3109 3110 3112 3113 3114 3115 3115 3116 3117 3114 3117 3114 3095 3083 3088 3097 3099 3096 3097 3101 3100 3102 3103 3101 3102 3103 3104 3104 3105 3105 3104 3103 3101 3101 3103 3104 3105 3106 3103 3102 3102 3101 3099 3097 3099 3101 3101 3101 3101 3101 3100 3097 3098 3098 3097 3101 3102 3104 3106 3099 3093 3091 3085 3076 3073 3074 3073 3059 3038 3031 3037 3040 3044 3048 3049 3052 3051 3051 3051 3051 3051 3050 3049 3048
3100 3100 3101 3102 3103 3105 3107 3109 3109 3110 3111 3111 3110 3110 3111 3099 3080 3077 3087 3091 3094 3096 3096 3097 3099 3099 3098 3097 3098 3099 3100 3101 3100 3101 3099 3097 3096 3095 3096 3098 3100 3101 3101 3100 3099 3098 3097 3090 3091 3097 3096 3095 3096 3096 3096 3094 3094 3093 3094 3098 3096 3096 3098 3092 3087 3085 3079 3073 3069 3071 3067 3046 3030 3029 3030 3033 3039 3042 3044 3046 3045 3045 3046 3047 3046 3046 3045 3043
3095 3095 3096 3097 3098 3100 3101 3104 3104 3105 3106 3105 3105 3106 3096 3080 3073 3078 3082 3084 3090 3093 3092 3094 3095 3094 3093 3093 3093 3095 3098 3097 3095 3096 3094 3092 3090 3088 3089 3092 3095 3097 3097 3097 3095 3095 3092 3084 3084 3090 3090 3090 3092 3092 3093 3092 3090 3090 3091 3092 3088 3088 3090 3088 3084 3080 3079 3077 3066 3059 3050 3033 3025 3025 3025 3031 3034 3035 3039 3040 3039 3041 3041 3042 3042 3041 3040 3039
3090 3090 3090 3090 3093 3095 3096 3098 3099 3099 3100 3100 3100 3094 3077 3069 3072 3076 3076 3080 3085 3086 3089 3090 3089 3089 3088 3087 3088 3090 3093 3092 3091 3091 3089 3087 3085 3082 3082 3085 3089 3091 3091 3092 3091 3090 3087 3081 3081 3084 3084 3086 3087 3087 3088 3086 3085 3086 3085 3082 3081 3084 3086 3086 3084 3079 3082 3080 3061 3047 3038 3026 3023 3019 3017 3026 3029 3028 3034 3033 3034 3037 3036 3037 3037 3036 3036 3034
3083 3084 3083 3083 3087 3090 3090 3091 3093 3093 3093 3094 3091 3079 3066 3066 3070 3071 3073 3076 3078 3082 3086 3084 3082 3082 3082 3080 3081 3084 3088 3088 3086 3085 3084 3082 3078 3074 3075 3079 3082 3084 3086 3087 3087 3086 3084 3079 3077 3078 3079 3081 3083 3082 3082 3080 3081 3081 3078 3077 3080 3083 3084 3085 3085 3081 3081 3078 3058 3042 3034 3024 3021 3015 3010 3019 3023 3023 3027 3028 3029 3031 3030 3032 3032 3031 3031 3030
3077 3078 3074 3075 3081 3084 3083 3083 3084 3085 3086 3086 3080 3069 3062 3063 3064 3067 3070 3071 3073 3078 3079 3076 3075 3075 3075 3075 3075 3079 3083 3083 3080 3080 3079 3077 3071 3067 3070 3074 3076 3078 3082 3084 3083 3082 3081 3078 3075 3074 3074 3077 3078 3076 3075 3075 3076 3075 3073 3075 3077 3078 3079 3080 3082 3077 3074 3074 3058 3041 3032 3019 3012 3010 3009 3015 3019 3019 3021 3023 3023 3024 3025 3026 3027 3026 3026 3024
3071 3069 3064 3066 3075 3077 3075 3074 3075 3078 3078 3074 3068 3061 3057 3057 3059 3062 3065 3066 3069 3071 3069 3067 3069 3070 3070 3070 3071 3074 3077 3075 3075 3075 3072 3070 3065 3062 3066 3070 3071 3074 3077 3079 3077 3076 3077 3075 3072 3070 3070 3072 3070 3067 3067 3067 3069 3070 3070 3071 3071 3072 3074 3073 3074 3070 3066 3068 3058 3044 3032 3007 2995 3004 3009 3011 3015 3015 3017 3018 3018 3019 3020 3021 3022 3021 3020 3019
3064 3060 3054 3058 3067 3067 3067 3067 3068 3069 3066 3062 3059 3055 3052 3053 3056 3059 3061 3062 3063 3063 3061 3062 3064 3065 3064 3065 3067 3069 3070 3068 3068 3068 3065 3064 3061 3059 3062 3065 3067 3069 3071 3071 3071 3070 3072 3072 3069 3067 3066 3064 3059 3058 3058 3058 3061 3063 3063 3065 3064 3067 3069 3067 3066 3064 3062 3063 3056 3050 3034 2997 2984 3000 3005 3006 3010 3011 3012 3013 3011 3013 3014 3015 3016 3015 3015 3014
3057 3052 3046 3049 3055 3058 3060 3058 3057 3059 3057 3053 3052 3050 3049 3051 3053 3055 3056 3057 3057 3056 3057 3057 3058 3059 3058 3059 3060 3062 3063 3062 3060 3061 3059 3057 3057 3055 3057 3059 3062 3064 3064 3065 3065 3065 3067 3066 3066 3065 3060 3054 3051 3052 3052 3051 3054 3055 3056 3058 3057 3059 3063 3064 3062 3056 3055 3055 3047 3046 3033 2994 2981 2999 3002 3002 3006 3005 3007 3008 3005 3006 3007 3008 3011 3010 3009 3009
3049 3044 3042 3043 3045 3048 3050 3047 3048 3051 3046 3043 3044 3045 3046 3048 3047 3049 3050 3051 3051 3051 3052 3051 3051 3052 3052 3053 3054 3056 3058 3055 3054 3053 3051 3050 3052 3051 3053 3056 3057 3057 3058 3060 3060 3061 3062 3062 3060 3059 3055 3051 3048 3047 3046 3046 3049 3052 3052 3052 3053 3055 3056 3055 3053 3047 3047 3046 3037 3040 3032 2993 2978 2996 3001 2999 3002 3001 3003 3003 3000 3001 3001 3002 3004 3004 3004 3003
3041 3039 3038 3038 3037 3039 3040 3038 3039 3039 3033 3035 3039 3040 3041 3041 3041 3042 3044 3045 3046 3046 3046 3044 3043 3045 3046 3047 3049 3050 3051 3049 3046 3045 3045 3046 3046 3046 3050 3052 3051 3051 3054 3054 3054 3057 3058 3057 3055 3053 3051 3049 3044 3041 3041 3041 3045 3046 3044 3045 3047 3048 3046 3046 3045 3041 3041 3035 3029 3038 3029 2990 2976 2994 2998 2995 2998 2998 2998 2997 2996 2996 2996 2997 2998 2997 2998 2997
3036 3034 3032 3031 3030 3029 3028 3027 3027 3026 3026 3031 3033 3033 3034 3034 3033 3035 3036 3037 3039 3039 3038 3037 3036 3039 3041 3043 3044 3044 3044 3043 3039 3038 3041 3041 3039 3039 3043 3045 3045 3046 3047 3047 3049 3052 3051 3050 3051 3051 3050 3046 3041 3037 3035 3034 3037 3038 3037 3039 3040 3040 3043 3043 3041 3040 3034 3022 3022 3032 3016 2983 2979 2993 2993 2992 2994 2992 2992 2992 2991 2991 2991 2992 2993 2992 2993 2992
3032 3026 3023 3024 3022 3017 3016 3018 3020 3019 3022 3025 3025 3026 3028 3026 3026 3029 3029 3030 3032 3032 3031 3030 3031 3033 3035 3037 3038 3037 3037 3036 3035 3035 3036 3034 3032 3033 3035 3038 3040 3040 3040 3042 3043 3044 3044 3043 3044 3045 3044 3040 3033 3028 3026 3028 3032 3031 3030 3032 3033 3035 3037 3035 3035 3033 3021 3010 3017 3020 2999 2978 2984 2992 2989 2989 2989 2986 2988 2988 2986 2986 2987 2988 2988 2988 2988 2987
3024 3017 3015 3016 3013 3007 3007 3012 3015 3014 3015 3018 3017 3019 3021 3018 3018 3021 3023 3023 3024 3024 3024 3024 3026 3028 3029 3030 3030 3029 3029 3030 3031 3031 3029 3027 3027 3028 3029 3031 3033 3034 3034 3036 3036 3037 3036 3034 3035 3034 3030 3027 3023 3019 3021 3025 3026 3024 3024 3026 3027 3028 3028 3029 3027 3017 3006 3007 3011 3003 2988 2981 2985 2986 2983 2985 2985 2982 2984 2984 2983 2984 2984 2983 2984 2983 2982 2982
3018 3009 3007 3009 3006 3000 3000 3004 3006 3006 3009 3011 3010 3011 3012 3012 3014 3015 3015 3015 3016 3018 3018 3017 3019 3020 3019 3021 3022 3021 3021 3024 3026 3024 3022 3021 3022 3023 3024 3025 3027 3028 3029 3030 3030 3029 3026 3024 3025 3024 3019 3018 3017 3016 3018 3020 3018 3018 3019 3020 3022 3021 3021 3021 3012 2998 3001 3008 2997 2984 2984 2987 2986 2979 2972 2976 2981 2979 2979 2980 2979 2980 2980 2979 2979 2977 2976 2976
3011 3004 3002 3003 2999 2993 2993 2996 2998 3000 3003 3004 3003 3004 3005 3007 3008 3008 3008 3009 3010 3012 3012 3010 3010 3010 3010 3013 3014 3013 3015 3018 3018 3015 3014 3015 3017 3018 3019 3020 3022 3022 3023 3023 3022 3022 3018 3015 3016 3015 3011 3011 3013 3012 3013 3013 3012 3014 3014 3014 3015 3013 3011 3008 2998 2993 2998 2993 2976 2975 2986 2989 2983 2970 2961 2968 2977 2976 2975 2974 2973 2974 2974 2973 2972 2970 2969 2969
3004 2999 2998 2997 2991 2986 2989 2993 2995 2994 2994 2996 2995 2995 2998 2999 2999 3001 3003 3004 3002 3003 3004 3002 3000 3001 3003 3005 3007 3006 3009 3010 3007 3006 3008 3009 3011 3013 3014 3015 3016 3016 3017 3017 3017 3017 3013 3008 3010 3010 3005 3005 3007 3005 3006 3009 3009 3007 3008 3009 3008 3003 3001 3000 2992 2988 2985 2976 2971 2978 2985 2983 2973 2958 2956 2967 2972 2970 2970 2968 2966 2967 2967 2967 2966 2963 2962 2961
2996 2994 2994 2990 2983 2982 2984 2987 2989 2986 2985 2989 2987 2986 2990 2990 2990 2995 2997 2995 2993 2994 2996 2995 2994 2996 2997 3000 3002 3001 3001 3002 3000 3001 3004 3004 3004 3007 3008 3008 3010 3010 3012 3012 3011 3012 3008 3003 3005 3006 3001 2999 3000 2998 3000 3004 3002 3001 3005 3005 2996 2991 2995 2994 2983 2975 2974 2972 2974 2978 2978 2971 2957 2948 2956 2966 2965 2964 2964 2961 2960 2960 2960 2961 2960 2956 2955 2954
2990 2991 2991 2984 2976 2976 2977 2978 2980 2977 2976 2978 2977 2978 2981 2980 2983 2989 2987 2986 2988 2988 2988 2989 2989 2993 2993 2994 2996 2993 2992 2994 2993 2994 2998 2998 2998 3000 3000 3001 3003 3004 3004 3005 3004 3005 3004 2999 3000 3002 2996 2992 2992 2993 2995 2997 2997 2999 2999 2992 2982 2983 2988 2982 2969 2966 2971 2974 2973 2973 2967 2954 2943 2946 2957 2959 2957 2957 2956 2954 2954 2953 2953 2955 2952 2950 2949 2946
2985 2984 2985 2980 2970 2969 2970 2970 2970 2967 2964 2967 2968 2970 2971 2972 2979 2984 2979 2978 2981 2982 2982 2984 2985 2987 2986 2984 2984 2984 2985 2988 2988 2989 2993 2994 2993 2993 2992 2992 2994 2995 2996 2996 2996 2997 2997 2994 2995 2997 2990 2984 2986 2989 2989 2992 2993 2989 2981 2975 2974 2978 2978 2969 2960 2962 2970 2972 2969 2963 2953 2943 2941 2949 2952 2948 2948 2949 2947 2947 2946 2944 2945 2946 2944 2943 2942 2939